Tracking 19242 objects as of 20-Sep-2018
HD Live streaming from Space Station
objects crossing your sky now

FENGYUN 1C DEB

Track FENGYUN 1C DEB now!
10-day predictions


NORAD ID: 38819
Int'l Code: 1999-025EVK
Perigee: 788.7 km
Apogee: 911.1 km
Inclination: 98.7 °
Period: 101.8 minutes
Semi major axis: 7220 km
RCS: 0.0055 m2 (small)
Launch date: May 10, 1999
Source: People's Republic of China (PRC)
Launch site: Taiyaun Space Center, China (TSC)

Note: This is SATELLITE DEBRIS
aabbcc
Your satellite tracking list
Your tracking list is empty




NASA's NSSDC Master Catalog

Two Line Element Set (TLE):
1 38819U 99025EVK 18259.33489850 +.00000155 +00000-0 +99618-4 0  9997
2 38819 098.7394 294.6427 0084728 221.4923 199.9984 14.14869850260505
Source of the keplerian elements: AFSPC